S5 (44065 NORAD) Tracking and Keplerian Element Data

This shows tracking and keplerian element data for the satellite.

Feedback or suggestion? Click here.




ElementValue
Catalog44065
NameS5
Epoch Orbit27
Epoch Day90.3010744
Epoch Year2019
RAAN260.871
Inclination0.0266
Eccentricity0.0001189
Argument of Perigee248.9376
Mean Anonmoly210.1835
Mean Motion0.99335877
Decay Rate8.4E-07
L11 44065U 19009D 19090.30107440 .00000084 00000-0 00000-0 0 9998
L22 44065 0.0266 260.8710 0001189 248.9376 210.1835 0.99335877 277

Live tracking and technical data element details for S5 (NORAD 44065). S5 can be tracked NOW for your location showing map with azimuth and elevation plus other details from your city location.

Track the satellite on the map from your city or location and see movement details for azimuth, elevation, latitude, longitude, range, height, and movement on the map or in text.







IsCatalogInMostPopularTable: catalog: 44065, numindb: 48
Update: records affected: 1



GetName: 44065 S5

Hit Count: updated at: Mon, 15 Jul 2019 21:54:17 GMT